Weather History for Middlesboro, KY

Change the Weather History Date:

Friday, May 3, 2013

  Actual Average (KLOZ) Record (KLOZ)
Temperature  
Mean Temperature 62 °F 62 °F  
Max Temperature 72 °F 73 °F 87 °F (1959)
Min Temperature 53 °F 50 °F 32 °F (1961)
Degree Days  
Heating Degree Days 2 5  
Month to date heating degree days 15  
Since 1 July heating degree days 4116  
Cooling Degree Days 0 1  
Month to date cooling degree days 3  
Year to date cooling degree days 29  
Growing Degree Days 12 (Base 50)    
Moisture  
Dew Point 49 °F    
Average Humidity 59    
Maximum Humidity 87    
Minimum Humidity 40    
Precipitation  
Precipitation 0.00 in 0.16 in 2.67 in (2009)
Month to date precipitation 0.46  
Year to date precipitation 15.81  
Sea Level Pressure  
Sea Level Pressure 30.08 in    
Wind  
Wind Speed 4 mph (SE)    
Max Wind Speed 12 mph    
Max Gust Speed 18 mph    
Visibility 10 miles    
Events      
T = Trace of Precipitation, MM = Missing Value Source: NWS Daily Summary

Daily Weather History Graph

Daily Weather History Graph

Search for Another Location

Airport:

Trip Planner

Search our weather history database for the weather conditions in past years. The results will help you decide how hot, cold, wet, or windy it might be!

Date:

Astronomy

May. 03, 2013 Rise Set
Actual Time 5:38 AM CDT 7:25 PM CDT
Civil Twilight 5:11 AM CDT 7:53 PM CDT
Nautical Twilight 4:37 AM CDT 8:27 PM CDT
Astronomical Twilight 4:01 AM CDT 9:03 PM CDT
Moon 1:52 AM CDT (5/3) 1:28 PM CDT (5/3)
Length of Visible Light 14h 42m
Length of Day
13h 46m
Last Quarter, 37% of the Moon is Illuminated
May 3
Last Quarter
May 9
New
May 17
First Quarter
May 24
Full
May 31
Last Quarter

Hourly Weather History & Observations

Time (CDT) Temp. Dew Point Humidity Pressure Visibility Wind Dir Wind Speed Gust Speed Precip Events Conditions
12:15 AM 61.3 °F 51.6 °F 70% 30.15 in 10.0 mi SSE 3.5 mph - N/A   Clear
12:35 AM 61.7 °F 51.6 °F 69% 30.15 in 10.0 mi SE 4.6 mph - N/A   Clear
12:55 AM 60.4 °F 51.8 °F 73% 30.14 in 10.0 mi South 6.9 mph - N/A   Scattered Clouds
1:15 AM 60.1 °F 51.8 °F 74% 30.14 in 10.0 mi Calm Calm - N/A   Scattered Clouds
1:35 AM 59.4 °F 51.6 °F 76% 30.14 in 10.0 mi Calm Calm - N/A   Clear
1:55 AM 59.5 °F 51.3 °F 74% 30.13 in 10.0 mi Calm Calm - N/A   Clear
2:15 AM 58.1 °F 51.3 °F 78% 30.13 in 10.0 mi Calm Calm - N/A   Clear
2:35 AM 57.4 °F 51.3 °F 80% 30.13 in 10.0 mi Calm Calm - N/A   Clear
2:55 AM 57.4 °F 50.9 °F 79% 30.13 in 10.0 mi Calm Calm - N/A   Clear
3:15 AM 57.0 °F 51.1 °F 81% 30.12 in 10.0 mi Calm Calm - N/A   Clear
3:35 AM 55.4 °F 51.1 °F 85% 30.13 in 10.0 mi Calm Calm - N/A   Clear
3:55 AM 55.4 °F 51.1 °F 85% 30.13 in 10.0 mi West 3.5 mph - N/A   Clear
4:15 AM 56.1 °F 50.9 °F 83% 30.13 in 10.0 mi SW 3.5 mph - N/A   Clear
4:35 AM 55.6 °F 50.7 °F 84% 30.12 in 10.0 mi Calm Calm - N/A   Clear
4:55 AM 55.2 °F 50.4 °F 84% 30.12 in 10.0 mi Calm Calm - N/A   Clear
5:15 AM 55.4 °F 50.0 °F 82% 30.12 in 10.0 mi SSW 3.5 mph - N/A   Clear
5:35 AM 54.5 °F 50.0 °F 85% 30.12 in 10.0 mi Calm Calm - N/A   Clear
5:55 AM 53.8 °F 50.0 °F 87% 30.12 in 10.0 mi Calm Calm - N/A   Clear
6:15 AM 54.3 °F 50.0 °F 85% 30.13 in 10.0 mi Calm Calm - N/A   Clear
6:35 AM 57.7 °F 49.5 °F 74% 30.13 in 10.0 mi Calm Calm - N/A   Clear
6:55 AM 58.8 °F 49.3 °F 71% 30.14 in 10.0 mi Calm Calm - N/A   Clear
7:15 AM 59.5 °F 49.3 °F 69% 30.14 in 10.0 mi Calm Calm - N/A   Clear
7:35 AM 60.6 °F 49.8 °F 68% 30.14 in 10.0 mi SSE 4.6 mph - N/A   Clear
7:55 AM 61.3 °F 49.8 °F 66% 30.14 in 10.0 mi ESE 5.8 mph - N/A   Clear
8:15 AM 62.1 °F 50.0 °F 65% 30.13 in 10.0 mi ESE 3.5 mph - N/A   Clear
8:35 AM 63.5 °F 50.0 °F 61% 30.13 in 10.0 mi SSE 6.9 mph - N/A   Clear
8:55 AM 63.7 °F 50.0 °F 61% 30.12 in 10.0 mi SE 6.9 mph - N/A   Clear
9:15 AM 64.9 °F 50.4 °F 59% 30.12 in 10.0 mi SE 5.8 mph - N/A   Clear
9:35 AM 66.9 °F 51.1 °F 57% 30.11 in 10.0 mi East 6.9 mph 16.1 mph N/A   Scattered Clouds
9:55 AM 65.1 °F 50.4 °F 59% 30.12 in 10.0 mi ESE 4.6 mph - N/A   Scattered Clouds
10:15 AM 65.5 °F 50.9 °F 59% 30.11 in 10.0 mi East 4.6 mph - N/A   Scattered Clouds
10:35 AM 66.6 °F 51.6 °F 59% 30.11 in 10.0 mi South 5.8 mph - N/A   Scattered Clouds
10:55 AM 67.3 °F 51.3 °F 56% 30.11 in 10.0 mi East 3.5 mph - N/A   Scattered Clouds
11:15 AM 68.9 °F 51.3 °F 53% 30.10 in 10.0 mi SSE 5.8 mph 18.4 mph N/A   Scattered Clouds
11:35 AM 68.4 °F 51.3 °F 54% 30.10 in 10.0 mi ESE 4.6 mph - N/A   Clear
11:55 AM 68.9 °F 51.3 °F 53% 30.09 in 10.0 mi Calm Calm - N/A   Clear
12:15 PM 69.4 °F 51.8 °F 53% 30.08 in 10.0 mi SSE 4.6 mph - N/A   Scattered Clouds
12:35 PM 69.6 °F 52.2 °F 54% 30.07 in 10.0 mi SE 6.9 mph - N/A   Mostly Cloudy
12:55 PM 71.1 °F 51.1 °F 49% 30.06 in 10.0 mi SSE 8.1 mph 16.1 mph N/A   Scattered Clouds
1:15 PM 72.1 °F 50.0 °F 46% 30.06 in 10.0 mi SSE 8.1 mph 17.3 mph N/A   Scattered Clouds
1:35 PM 72.7 °F 48.6 °F 42% 30.05 in 10.0 mi SSE 11.5 mph 17.3 mph N/A   Scattered Clouds
1:55 PM 72.0 °F 48.4 °F 43% 30.04 in 10.0 mi SSE 10.4 mph 17.3 mph N/A   Scattered Clouds
2:15 PM 71.8 °F 47.5 °F 42% 30.03 in 10.0 mi SSE 6.9 mph - N/A   Clear
2:35 PM 72.0 °F 46.6 °F 40% 30.02 in 10.0 mi ESE 10.4 mph - N/A   Clear
2:55 PM 72.0 °F 47.1 °F 41% 30.02 in 10.0 mi SSE 6.9 mph - N/A   Clear
3:15 PM 71.2 °F 47.7 °F 43% 30.02 in 10.0 mi SSE 9.2 mph - N/A   Clear
3:35 PM 71.6 °F 48.9 °F 45% 30.01 in 10.0 mi SSE 9.2 mph 16.1 mph N/A   Clear
3:55 PM 71.6 °F 48.4 °F 44% 30.01 in 10.0 mi ESE 5.8 mph 16.1 mph N/A   Scattered Clouds
4:15 PM 72.1 °F 47.7 °F 42% 30.01 in 10.0 mi ESE 8.1 mph - N/A   Scattered Clouds
4:35 PM 70.7 °F 46.2 °F 42% 30.01 in 10.0 mi ESE 6.9 mph - N/A   Clear
4:55 PM 70.3 °F 46.9 °F 43% 30.02 in 10.0 mi SE 6.9 mph - N/A   Clear
5:15 PM 69.8 °F 47.3 °F 45% 30.01 in 10.0 mi SSE 10.4 mph 16.1 mph N/A   Scattered Clouds
5:35 PM 69.6 °F 47.7 °F 45% 30.00 in 10.0 mi SE 8.1 mph 17.3 mph N/A   Scattered Clouds
5:55 PM 68.7 °F 48.2 °F 48% 30.01 in 10.0 mi SE 9.2 mph - N/A   Clear
6:15 PM 67.8 °F 49.1 °F 51% 30.01 in 10.0 mi SE 6.9 mph 17.3 mph N/A   Clear
6:35 PM 66.7 °F 49.1 °F 53% 30.02 in 10.0 mi SE 9.2 mph 16.1 mph N/A   Clear
6:55 PM 66.2 °F 49.3 °F 54% 30.02 in 10.0 mi SSE 9.2 mph - N/A   Clear
7:15 PM 65.7 °F 49.1 °F 55% 30.02 in 10.0 mi SE 5.8 mph - N/A   Scattered Clouds
7:35 PM 65.3 °F 47.8 °F 53% 30.03 in 10.0 mi SE 3.5 mph - N/A   Scattered Clouds
7:55 PM 64.4 °F 46.2 °F 52% 30.03 in 10.0 mi SSE 5.8 mph - N/A   Clear
8:15 PM 64.0 °F 43.3 °F 47% 30.02 in 10.0 mi East 3.5 mph 18.4 mph N/A   Clear
8:35 PM 63.3 °F 43.0 °F 47% 30.03 in 10.0 mi Calm Calm - N/A   Clear
8:55 PM 63.1 °F 42.1 °F 46% 30.03 in 10.0 mi SE 5.8 mph - N/A   Clear
9:15 PM 62.6 °F 42.3 °F 47% 30.04 in 10.0 mi Calm Calm - N/A   Clear
9:35 PM 62.6 °F 43.0 °F 49% 30.04 in 10.0 mi SE 6.9 mph - N/A   Scattered Clouds
9:55 PM 62.6 °F 43.2 °F 49% 30.03 in 10.0 mi South 5.8 mph - N/A   Scattered Clouds
10:15 PM 62.8 °F 43.5 °F 49% 30.03 in 10.0 mi SSE 5.8 mph - N/A   Clear
10:35 PM 62.6 °F 43.7 °F 50% 30.02 in 10.0 mi SSE 5.8 mph - N/A   Clear
10:55 PM 62.1 °F 43.7 °F 51% 30.02 in 10.0 mi ESE 4.6 mph - N/A   Clear
11:15 PM 61.9 °F 43.9 °F 52% 30.02 in 10.0 mi Calm Calm - N/A   Clear
11:35 PM 61.7 °F 43.9 °F 52% 30.02 in 10.0 mi ESE 4.6 mph - N/A   Clear
11:55 PM 61.3 °F 43.9 °F 53% 30.01 in 10.0 mi ESE 6.9 mph - N/A   Clear